sat.trackr.live / text

‹ back to catalog

STARLINK-32492

NORAD 62050 · 2024-216U

PAYLOAD ACTIVE UNKNOWN

§ Identity

Operator
Country
US
Launch date
2024-11-21
Launch site
AFETR
Launch vehicle
Mass (kg)
RCS (m²)

Purposes: comms

External: N2YO · Heavens-Above · Gunter

§ Orbital elements

Epoch: 2026-09-21T15:25:08.652000Z

Period
94.27 min
Inclination
43.0021°
Eccentricity
0.0001534
Mean motion
15.27585535 rev/d
Perigee alt
482.0 km
Apogee alt
484.1 km
Semi-major
6,861.2 km
B*
4.8983e-4
RAAN
236.6432°
Arg perigee
267.0289°
Mean anomaly
93.0387°
Rev number
10,376

§ Raw data

STARLINK-324921 62050U 24216U   26264.64246125  .00013243  00000+0  48983-3 0  99952 62050  43.0021 236.6432 0001534 267.0289  93.0387 15.27585535103761

JSON: /api/v1/satellites/62050 · /tle

For live sub-satellite position, see the globe view (requires WebGL).

§ Visibility from observer

Set your observer location to see the next 7 days of passes ≥ 10°. The values pass through the URL so the page stays shareable.

No JS? Fill the form by hand. The geolocation button needs JavaScript.